1500458400.68,60815,19.06,74544.3,24.57,-6.93,-4.53,0,*4D
1500458401.9,60816,19.06,74542.0,24.59,-8.75,-5.81,0,*48
1500458403.11,60817,19.06,74544.5,24.59,-9.53,-7.11,0,*47
1500458404.33,60818,19.06,74546.5,24.59,-8.21,-5.69,0,*41
1500458405.54,60819,19.06,74544.3,24.61,-8.67,-6.05,0,*40
1500458406.77,60820,19.06,74546.0,24.61,-9.19,-6.81,0,*4E
1500458407.99,60821,19.06,74544.8,24.61,-8.97,-6.39,0,*4B
1500458409.21,60822,19.06,74544.8,24.63,-10.27,-7.69,0,*7C
1500458410.46,60823,19.06,74540.8,24.61,-11.67,-8.97,0,*74
1500458411.68,60824,19.06,74546.0,24.61,-10.57,-8.17,0,*79
1500458412.9,60825,19.06,74546.0,24.59,-10.35,-7.77,0,*7E
1500458414.14,60826,19.06,74542.8,24.59,-11.73,-9.11,0,*70
1500458415.39,60827,19.06,74542.3,24.59,-10.75,-7.95,0,*74
1500458416.66,60828,19.06,74546.0,24.57,-7.73,-5.19,0,*43
1500458417.88,60829,19.06,74544.8,24.59,-8.03,-5.51,0,*48
1500458419.09,60830,19.06,74544.3,24.59,-9.79,-7.31,0,*48
1500458420.34,60831,19.06,74546.0,24.61,-9.37,-6.59,0,*47
1500458421.58,60832,19.06,74544.5,24.61,-8.33,-5.65,0,*4D
1500458422.8,60833,19.06,74544.8,24.61,-9.75,-7.19,0,*46
1500458424.04,60834,19.06,74544.3,24.61,-9.93,-7.31,0,*43
1500458425.27,60835,19.06,74544.3,24.63,-11.37,-9.01,0,*7A
1500458426.51,60836,19.06,74544.0,24.61,-10.45,-7.77,0,*70
1500458427.7,60837,19.06,74546.3,24.59,-10.89,-8.29,0,*7E
1500458428.92,60838,19.06,74546.3,24.59,-11.37,-8.71,0,*78
1500458430.11,60839,19.06,74548.5,24.59,-10.23,-7.53,0,*72
1500458431.33,60840,19.06,74548.3,24.59,-8.37,-5.69,0,*4B
1500458432.59,60841,19.06,74544.8,24.61,-7.77,-4.93,0,*4E
1500458433.84,60842,19.06,74544.8,24.61,-7.53,-4.85,0,*4C
1500458435.06,60843,19.06,74546.3,24.63,-8.63,-5.85,0,*42
1500458436.33,60844,19.06,74550.3,24.65,-8.81,-5.77,0,*42
1500458437.54,60845,19.06,74544.5,24.67,-8.63,-5.69,0,*42
1500458438.75,60846,19.06,74546.0,24.67,-9.57,-6.77,0,*4B
1500458439.94,60847,19.06,74546.0,24.67,-10.09,-7.15,0,*7C
1500458441.16,60848,19.06,74544.0,24.67,-10.49,-7.43,0,*74
1500458442.35,60849,19.06,74544.3,24.67,-10.09,-7.11,0,*76
1500458443.59,60850,19.06,74542.5,24.69,-9.27,-6.27,0,*40
1500458444.8,60851,19.06,74548.0,24.67,-9.19,-6.23,0,*46
1500458446.03,60852,19.06,74548.3,24.67,-8.89,-5.85,0,*42
1500458447.26,60853,19.06,74542.5,24.69,-10.05,-6.93,0,*74
1500458448.51,60854,19.06,74542.5,24.69,-8.21,-5.19,0,*4D
1500458449.75,60855,19.06,74544.5,24.69,-8.71,-5.69,0,*4E
1500458450.99,60856,19.06,74546.0,24.73,-8.07,-4.99,0,*49
1500458452.18,60857,19.06,74544.0,24.75,-8.37,-5.43,0,*4B
1500458453.39,60858,19.06,74542.5,24.75,-9.31,-6.23,0,*46
1500458454.61,60859,19.06,74540.0,24.77,-9.31,-6.19,0,*4C
1500458455.81,60860,19.06,74546.3,24.77,-9.67,-6.51,0,*49
1500458457.02,60861,19.06,74542.5,24.75,-9.05,-5.65,0,*4A
1500458458.21,60862,19.06,74544.8,24.75,-7.87,-4.53,0,*49
1500458459.46,60863,19.06,74550.5,24.79,-8.41,-5.27,0,*43
1500458460.7,60864,19.06,74548.3,24.79,-10.09,-6.93,0,*7D
1500458461.93,60865,19.06,74544.0,24.77,-10.41,-7.11,0,*75
1500458463.15,60866,19.06,74546.8,24.77,-9.97,-6.63,0,*41
1500458464.37,60867,19.06,74544.5,24.77,-8.45,-5.19,0,*40
1500458465.57,60868,19.06,74546.8,24.77,-7.83,-4.61,0,*44
1500458466.79,60869,19.06,74546.5,24.79,-7.49,-4.21,0,*49
1500458468.03,60870,19.06,74544.3,24.83,-7.05,-3.79,0,*46
1500458469.27,60871,19.06,74546.0,24.83,-7.57,-4.17,0,*4F
1500458470.47,60872,19.06,74544.0,24.85,-7.83,-4.65,0,*46
1500458471.68,60873,19.06,74548.5,24.87,-7.49,-4.13,0,*42
1500458472.93,60874,19.06,74548.0,24.87,-7.77,-4.37,0,*4E
1500458474.16,60875,19.06,74546.8,24.87,-7.15,-3.71,0,*4E
1500458475.39,60876,19.06,74546.3,24.91,-6.63,-3.19,0,*44
1500458476.62,60877,19.06,74546.0,24.91,-7.31,-3.91,0,*43
1500458477.87,60878,19.06,74548.0,24.93,-8.11,-4.69,0,*43
1500458479.09,60879,19.06,74546.5,24.93,-7.65,-4.17,0,*47
1500458480.33,60880,19.06,74546.0,24.99,-6.01,-2.67,0,*49
1500458481.52,60881,19.06,74548.5,25.01,-6.01,-2.43,0,*4E
1500458482.73,60882,19.06,74550.3,25.01,-6.27,-2.91,0,*46
1500458483.95,60883,19.06,74550.5,25.05,-7.01,-3.75,0,*4D
1500458485.14,60884,19.06,74548.0,25.05,-7.19,-4.05,0,*43
1500458486.37,60885,19.06,74544.8,25.07,-6.69,-3.43,0,*43
1500458487.61,60886,19.06,74550.5,25.07,-7.35,-4.09,0,*41
1500458488.82,60887,19.06,74548.0,25.07,-6.55,-3.11,0,*49
1500458490.07,60888,19.06,74546.8,25.09,-5.27,-2.03,0,*4C
1500458491.27,60889,19.06,74550.0,25.13,-6.89,-3.55,0,*43
1500458492.52,60890,19.06,74548.3,25.15,-7.57,-4.13,0,*4A
1500458493.77,60891,19.06,74550.5,25.15,-7.77,-4.29,0,*40
1500458495.03,60892,19.06,74550.3,25.19,-6.93,-3.67,0,*49
1500458496.25,60893,19.06,74548.3,25.19,-6.01,-2.83,0,*48
1500458497.52,60894,19.06,74550.3,25.19,-5.77,-2.51,0,*42
1500458498.73,60895,19.06,74550.8,25.23,-5.43,-2.15,0,*4D
1500458500.01,60896,19.06,74548.3,25.23,-5.77,-2.51,0,*49
1500458501.26,60897,19.06,74550.0,25.27,-4.57,-1.43,0,*4F
1500458502.49,60898,19.06,74548.8,25.31,-4.85,-1.79,0,*41
1500458503.71,60899,19.06,74550.8,25.31,-4.53,-1.51,0,*41
1500458504.92,60900,19.06,74550.3,25.33,-3.59,-0.61,0,*7D
1500458506.15,60901,19.06,74554.0,25.41,-4.09,-0.93,0,*76
1500458507.4,60902,19.06,74548.8,25.43,-4.01,-1.09,0,*4D
1500458508.59,60903,19.06,74552.0,25.47,-2.91,-0.07,0,*48
1500458509.78,60904,19.06,74548.8,25.51,-3.27,-0.37,0,*77
1500458511.01,60905,19.06,74550.5,25.53,-4.45,-1.47,0,*41
1500458512.24,60906,19.06,74550.3,25.57,-4.21,-1.29,0,*4C
1500458513.49,60907,19.06,74548.5,25.57,-3.79,-1.05,0,*49
1500458514.7,60908,19.06,74550.8,25.57,-4.29,-1.51,0,*45
1500458515.94,60909,19.06,74548.5,25.61,-4.57,-1.83,0,*47
1500458517.21,60910,19.06,74548.0,25.61,-5.15,-2.59,0,*4C
1500458518.47,60911,19.06,74548.0,25.65,-4.77,-2.07,0,*47
1500458519.7,60912,19.06,74550.5,25.65,-5.11,-2.43,0,*45
1500458520.89,60913,19.06,74548.5,25.67,-4.29,-1.75,0,*4A
1500458522.09,60914,19.06,74548.8,25.67,-4.21,-1.55,0,*47
1500458523.32,60915,19.06,74550.3,25.69,-4.89,-2.39,0,*43
1500458524.54,60916,19.06,74548.0,25.71,-4.53,-1.99,0,*47
1500458525.76,60917,19.06,74546.5,25.71,-5.31,-2.87,0,*4F
1500458526.94,60918,19.06,74552.0,25.73,-5.97,-3.31,0,*42
1500458528.19,60919,19.06,74550.5,25.73,-5.31,-2.71,0,*4A
1500458529.44,60920,19.06,74548.5,25.75,-4.61,-2.07,0,*43
1500458530.65,60921,19.06,74548.5,25.75,-4.37,-2.15,0,*42
1500458531.87,60922,19.06,74550.5,25.75,-4.25,-1.63,0,*40
1500458533.08,60923,19.06,74550.5,25.77,-6.01,-3.55,0,*40
1500458534.3,60924,19.06,74554.5,25.77,-5.23,-2.79,0,*4B
1500458535.54,60925,19.06,74550.0,25.77,-3.55,-1.05,0,*45
1500458536.75,60926,19.06,74548.5,25.79,-2.91,-0.49,0,*78
1500458538.0,60927,19.06,74548.8,25.83,-2.55,-0.11,0,*79
1500458539.22,60928,19.06,74552.8,25.83,-2.95,-0.57,0,*78
1500458540.44,60929,19.06,74548.5,25.87,-4.05,-1.71,0,*47
1500458541.66,60930,19.06,74546.5,25.89,-3.83,-1.35,0,*48
1500458542.85,60931,19.06,74546.0,25.89,-3.07,-0.73,0,*76
1500458544.1,60932,19.06,74548.3,25.91,-4.25,-1.87,0,*41
1500458545.3,60933,19.06,74550.3,25.93,-4.69,-2.35,0,*40
1500458546.49,60934,19.06,74550.0,25.93,-4.49,-2.19,0,*4B
1500458547.75,60935,19.06,74548.8,25.91,-4.93,-2.71,0,*41
1500458548.94,60936,19.06,74548.8,25.93,-5.35,-3.03,0,*49
1500458550.15,60937,19.06,74548.3,25.93,-4.99,-2.67,0,*4C
1500458551.36,60938,19.06,74550.3,25.93,-6.31,-4.01,0,*45
1500458552.61,60939,19.06,74550.8,25.91,-7.23,-4.81,0,*4C
1500458553.85,60940,19.06,74548.8,25.87,-8.07,-5.47,0,*47
1500458555.07,60941,19.06,74548.3,25.83,-5.47,-3.15,0,*4A
1500458556.31,60942,19.13,74554.5,25.81,-5.07,-2.59,0,*46
1500458557.52,60943,19.06,74550.8,25.81,-4.73,-2.43,0,*4E
1500458558.73,60944,19.06,74550.5,25.79,-5.43,-3.03,0,*49
1500458559.97,60945,19.06,74550.0,25.79,-5.89,-3.39,0,*47
1500458561.21,60946,19.06,74552.8,25.79,-4.77,-2.35,0,*49
1500458562.44,60947,19.06,74550.5,25.79,-3.15,-0.85,0,*72
1500458563.67,60948,19.13,74550.5,25.79,-4.45,-1.91,0,*4B
1500458564.9,60949,19.06,74552.8,25.79,-4.29,-1.71,0,*4E
1500458566.13,60950,19.06,74550.0,25.83,-2.71,-0.29,0,*74
1500458567.36,60951,19.06,74548.0,25.83,-3.83,-1.33,0,*43
1500458568.58,60952,19.13,74552.8,25.83,-4.05,-1.79,0,*47
1500458569.83,60953,19.06,74550.3,25.87,-4.01,-1.63,0,*4D
1500458571.09,60954,19.13,74552.0,25.87,-5.11,-2.55,0,*4C
1500458572.31,60955,19.06,74550.8,25.83,-4.61,-2.15,0,*4B
1500458573.52,60956,19.13,74550.8,25.87,-4.65,-2.27,0,*49
1500458574.75,60957,19.06,74548.8,25.87,-4.45,-2.11,0,*4F
1500458575.96,60958,19.06,74550.3,25.89,-5.69,-3.23,0,*41
1500458577.21,60959,19.06,74550.8,25.83,-3.91,-1.43,0,*4F
1500458578.45,60960,19.13,74552.0,25.83,-6.27,-3.83,0,*43
1500458579.69,60961,19.06,74552.0,25.87,-6.01,-3.51,0,*4D
1500458580.9,60962,19.13,74550.8,25.81,-5.69,-3.31,0,*43
1500458582.14,60963,19.06,74548.0,25.81,-6.19,-3.59,0,*48
1500458583.36,60964,19.06,74550.5,25.77,-8.21,-5.69,0,*46
1500458584.61,60965,19.06,74548.3,25.71,-7.73,-5.07,0,*41
1500458585.83,60966,19.13,74550.8,25.67,-8.41,-5.65,0,*4F
1500458587.07,60967,19.13,74550.5,25.65,-9.79,-6.97,0,*48
1500458588.3,60968,19.06,74548.3,25.57,-8.81,-5.97,0,*43
1500458589.55,60969,19.13,74552.0,25.51,-7.77,-4.77,0,*4D
1500458590.82,60970,19.06,74548.0,25.49,-7.35,-4.81,0,*43
1500458592.05,60971,19.06,74550.8,25.47,-9.11,-6.31,0,*4D
1500458593.26,60972,19.06,74548.8,25.37,-11.85,-8.71,0,*77
1500458594.48,60973,19.06,74550.0,25.31,-12.25,-9.31,0,*7C
1500458595.72,60974,19.06,74550.3,25.25,-12.61,-9.57,0,*7E
1500458596.97,60975,19.06,74550.5,25.15,-12.07,-8.97,0,*71
1500458598.23,60976,19.06,74548.0,25.11,-10.97,-7.61,0,*7B
1500458599.5,60977,19.13,74552.5,25.03,-11.29,-7.95,0,*76
1500458600.72,60978,19.13,74552.8,24.99,-12.21,-8.71,0,*75
1500458601.92,60979,19.06,74548.0,24.93,-10.97,-7.53,0,*7E
1500458603.17,60980,19.13,74550.8,24.85,-11.67,-8.11,0,*78
1500458604.42,60981,19.13,74548.5,24.79,-13.43,-9.83,0,*74
1500458605.7,60982,19.13,74554.5,24.73,-13.79,-10.41,0,*42
1500458606.9,60983,19.06,74548.8,24.67,-12.21,-8.59,0,*7A
1500458608.15,60984,19.06,74550.5,24.61,-12.15,-8.85,0,*7D
1500458609.37,60985,19.06,74548.0,24.53,-12.89,-9.31,0,*76
1500458610.62,60986,19.13,74548.8,24.45,-12.89,-9.15,0,*74
1500458611.89,60987,19.06,74550.5,24.39,-13.29,-9.41,0,*74
1500458613.1,60988,19.13,74548.3,24.31,-12.47,-8.75,0,*7C
1500458614.29,60989,19.13,74550.8,24.29,-12.03,-8.25,0,*71
1500458615.53,60990,19.06,74550.0,24.23,-13.15,-9.41,0,*76
1500458616.78,60991,19.13,74550.8,24.15,-13.61,-9.75,0,*76
1500458617.98,60992,19.13,74554.5,24.11,-13.19,-9.31,0,*7E
1500458619.25,60993,19.13,74550.8,24.01,-14.05,-10.15,0,*4A
1500458620.49,60994,19.06,74550.0,23.93,-12.43,-8.51,0,*7C
1500458621.75,60995,19.13,74550.0,23.89,-11.63,-7.83,0,*77
1500458622.98,60996,19.13,74554.3,23.85,-12.97,-8.85,0,*79
1500458624.2,60997,19.13,74550.5,23.79,-13.11,-9.01,0,*79
1500458625.42,60998,19.06,74548.0,23.75,-12.89,-8.85,0,*77
1500458626.69,60999,19.13,74550.8,23.71,-11.51,-7.43,0,*71
1500458627.88,61000,19.13,74550.8,23.69,-12.39,-8.33,0,*75
1500458629.15,61001,19.13,74552.5,23.63,-11.33,-7.27,0,*7D
1500458630.4,61002,19.13,74548.0,23.63,-11.07,-7.15,0,*78
1500458631.62,61003,19.13,74552.5,23.57,-10.71,-6.69,0,*74
1500458632.84,61004,19.13,74548.5,23.53,-10.93,-7.01,0,*74
1500458634.09,61005,19.13,74550.8,23.53,-8.51,-4.73,0,*44
1500458635.28,61006,19.13,74548.5,23.53,-7.15,-3.35,0,*4D
1500458636.5,61007,19.06,74548.5,23.53,-6.47,-2.71,0,*4B
1500458637.75,61008,19.13,74550.5,23.55,-5.55,-1.91,0,*4F
1500458638.94,61009,19.13,74550.8,23.61,-4.09,-0.53,0,*7E
1500458640.13,61010,19.13,74550.3,23.65,-3.83,-0.19,0,*79
1500458641.35,61011,19.13,74550.3,23.67,-3.87,-0.41,0,*73
1500458642.56,61012,19.13,74548.3,23.73,-3.87,-0.23,0,*71
1500458643.77,61013,19.13,74554.8,23.77,-3.51,0.05,0,*66
1500458644.97,61014,19.13,74550.8,23.83,-2.59,0.97,0,*58
1500458646.19,61015,19.13,74550.0,23.87,-2.95,0.51,0,*57
1500458647.41,61016,19.13,74550.5,23.91,-4.65,-1.05,0,*47
1500458648.67,61017,19.13,74552.8,23.93,-3.51,0.21,0,*5E
1500458649.87,61018,19.13,74548.3,23.99,-3.87,-0.19,0,*76
1500458651.08,61019,19.13,74554.3,23.99,-2.99,0.59,0,*50
1500458652.31,61020,19.06,74550.0,24.09,-1.63,1.89,0,*6E
1500458653.52,61021,19.13,74548.8,24.09,-1.17,2.31,0,*6C
1500458654.74,61022,19.13,74548.0,24.17,-1.01,2.65,0,*66
1500458655.94,61023,19.13,74548.8,24.21,-0.23,3.29,0,*5A
1500458657.17,61024,19.13,74548.8,24.31,-0.85,2.61,0,*5D
1500458658.4,61025,19.13,74550.3,24.33,-3.43,0.25,0,*55
1500458659.63,61026,19.13,74550.3,24.37,-3.63,0.13,0,*55
1500458660.89,61027,19.13,74544.8,24.39,-2.47,1.13,0,*6C
1500458662.14,61028,19.13,74548.8,24.43,-2.71,0.91,0,*50
1500458663.35,61029,19.13,74548.5,24.47,-3.35,0.25,0,*5B
1500458664.6,61030,19.13,74548.8,24.53,-3.95,-0.23,0,*77
1500458665.81,61031,19.13,74548.3,24.53,-4.25,-0.69,0,*74
1500458667.03,61032,19.13,74546.3,24.57,-4.41,-0.77,0,*7E
1500458668.29,61033,19.13,74548.3,24.57,-4.69,-1.01,0,*45
1500458669.5,61034,19.13,74546.5,24.61,-4.45,-0.69,0,*76
1500458670.7,61035,19.13,74550.3,24.61,-4.45,-0.81,0,*71
1500458671.92,61036,19.13,74550.3,24.61,-4.09,-0.41,0,*76
1500458673.15,61037,19.13,74548.3,24.65,-3.67,0.01,0,*65
1500458674.37,61038,19.13,74548.0,24.65,-3.75,0.09,0,*61
1500458675.58,61039,19.13,74550.3,24.69,-4.13,-0.45,0,*7E
1500458676.8,61040,19.13,74548.5,24.69,-2.83,0.83,0,*58
1500458678.04,61041,19.13,74550.3,24.77,-2.07,1.67,0,*61
1500458679.23,61042,19.13,74546.8,24.81,-1.29,2.35,0,*60
1500458680.46,61043,19.13,74546.5,24.85,-1.35,2.21,0,*6D
1500458681.69,61044,19.13,74544.5,24.89,-2.07,1.59,0,*68
1500458682.92,61045,19.13,74546.8,24.91,-1.17,2.59,0,*61
1500458684.16,61046,19.13,74548.3,25.01,-2.03,1.55,0,*63
1500458685.39,61047,19.13,74548.0,25.01,-2.03,1.55,0,*62
1500458686.63,61048,19.13,74546.3,25.03,-2.27,1.37,0,*6D
1500458687.89,61049,19.13,74548.5,25.11,-1.99,1.71,0,*6B
1500458689.12,61050,19.13,74546.8,25.15,-2.83,0.91,0,*50
1500458690.33,61051,19.13,74546.3,25.15,-4.29,-0.61,0,*75
1500458691.57,61052,19.13,74546.8,25.15,-3.63,0.05,0,*60
1500458692.77,61053,19.13,74544.3,25.21,-2.35,1.33,0,*60
1500458694.0,61054,19.13,74550.3,25.23,-2.99,0.75,0,*50
1500458695.24,61055,19.13,74546.3,25.27,-2.27,1.47,0,*60
1500458696.47,61056,19.13,74550.0,25.27,-1.71,1.89,0,*61
1500458697.71,61057,19.13,74544.3,25.31,-1.35,2.35,0,*63
1500458698.93,61058,19.13,74548.3,25.35,-3.03,0.67,0,*5A
1500458700.16,61059,19.13,74546.8,25.41,-2.39,1.33,0,*60
1500458701.38,61060,19.13,74548.0,25.43,-1.35,2.27,0,*61
1500458702.56,61061,19.13,74546.3,25.47,-1.79,1.79,0,*64
1500458703.77,61062,19.13,74550.0,25.51,-2.27,1.37,0,*62
1500458705.0,61063,19.13,74544.0,25.53,-3.11,0.55,0,*50
1500458706.24,61064,19.13,74546.8,25.57,-2.19,1.33,0,*6B
1500458707.47,61065,19.13,74548.5,25.57,-3.15,0.37,0,*52
1500458708.67,61066,19.13,74546.3,25.59,-3.23,0.47,0,*5D
1500458709.9,61067,19.13,74546.8,25.65,-3.23,0.41,0,*55
1500458711.1,61068,19.13,74548.8,25.67,-2.83,0.59,0,*5A
1500458712.33,61069,19.13,74550.3,25.69,-3.11,0.47,0,*50
1500458713.56,61070,19.13,74546.0,25.69,-3.39,0.25,0,*56
1500458714.76,61071,19.13,74548.5,25.71,-2.35,1.29,0,*6E
1500458716.02,61072,19.13,74548.3,25.75,-2.51,0.95,0,*5D
1500458717.25,61073,19.13,74544.3,25.79,-3.67,-0.65,0,*76
1500458718.48,61074,19.13,74546.3,25.79,-3.39,0.13,0,*56
1500458719.69,61075,19.13,74544.5,25.81,-2.95,0.63,0,*50
1500458720.95,61076,19.13,74546.8,25.83,-2.67,0.71,0,*5F
1500458722.19,61077,19.13,74544.5,25.87,-4.01,-0.53,0,*71
1500458723.43,61078,19.13,74548.0,25.89,-4.89,-1.47,0,*44
1500458724.61,61079,19.13,74548.8,25.89,-4.65,-1.33,0,*44
1500458725.83,61080,19.13,74548.5,25.89,-5.81,-2.23,0,*4B
1500458727.07,61081,19.13,74544.5,25.89,-3.63,-0.27,0,*76
1500458728.29,61082,19.13,74544.3,25.91,-3.87,-0.49,0,*7E
1500458729.5,61083,19.13,74548.0,25.91,-5.43,-2.19,0,*46
1500458730.72,61084,19.13,74544.8,25.93,-4.01,-0.73,0,*7A
1500458731.94,61085,19.13,74548.8,25.95,-3.91,-0.65,0,*74
1500458733.15,61086,19.13,74546.0,25.97,-3.51,-0.33,0,*7A
1500458734.39,61087,19.13,74544.3,25.99,-4.01,-0.77,0,*77
1500458735.58,61088,19.13,74540.5,26.01,-5.51,-2.39,0,*46
1500458736.81,61089,19.13,74546.5,25.99,-7.27,-4.13,0,*48
1500458738.02,61090,19.13,74546.5,25.99,-6.35,-3.23,0,*46
1500458739.29,61091,19.13,74546.8,25.99,-5.03,-2.07,0,*46
1500458740.53,61092,19.13,74550.0,25.99,-5.27,-2.35,0,*42
1500458741.77,61093,19.13,74550.3,25.99,-3.91,-1.09,0,*44
1500458743.01,61094,19.13,74548.3,26.03,-3.75,-1.01,0,*41
1500458744.22,61095,19.13,74548.8,26.03,-4.45,-1.79,0,*4B
1500458745.46,61096,19.13,74544.0,26.09,-5.61,-2.95,0,*44
1500458746.69,61097,19.13,74546.0,26.09,-5.73,-3.15,0,*4F
1500458747.94,61098,19.13,74548.5,26.09,-4.69,-2.11,0,*4F
1500458749.17,61099,19.13,74542.3,26.09,-5.73,-3.23,0,*44
1500458750.36,61100,19.13,74546.0,26.11,-6.35,-3.79,0,*42
1500458751.6,61101,19.13,74546.5,26.09,-7.11,-4.69,0,*4B
1500458752.87,61102,19.13,74542.3,26.09,-8.07,-5.73,0,*4A
1500458754.1,61103,19.13,74542.5,26.05,-8.63,-6.27,0,*47
1500458755.32,61104,19.13,74542.5,26.05,-6.69,-4.53,0,*45
1500458756.53,61105,19.13,74548.5,26.05,-4.33,-2.39,0,*43
1500458757.77,61106,19.13,74546.5,26.05,-5.07,-3.03,0,*4E
1500458758.97,61107,19.13,74544.8,26.11,-5.11,-3.23,0,*4F
1500458760.18,61108,19.13,74544.0,26.09,-6.05,-4.25,0,*4E
1500458761.39,61109,19.13,74544.8,26.09,-5.43,-3.79,0,*40
1500458762.62,61110,19.13,74542.5,26.09,-4.89,-3.39,0,*4B
1500458763.82,61111,19.13,74544.3,26.11,-4.33,-2.99,0,*49
1500458765.0,61112,19.13,74544.0,26.15,-4.41,-3.03,0,*49
1500458766.22,61113,19.13,74540.3,26.13,-5.47,-4.21,0,*4E
1500458767.46,61114,19.13,74544.8,26.13,-5.23,-3.95,0,*43
1500458768.67,61115,19.13,74544.3,26.15,-4.33,-3.51,0,*4C
1500458769.87,61116,19.13,74542.3,26.15,-6.69,-5.65,0,*43
1500458771.08,61117,19.13,74540.0,26.15,-4.69,-3.79,0,*4B
1500458772.29,61118,19.13,74546.8,26.15,-4.93,-4.21,0,*4B
1500458773.53,61119,19.13,74546.5,26.17,-6.35,-5.93,0,*4E
1500458774.76,61120,19.13,74544.3,26.17,-4.01,-3.35,0,*4B
1500458775.97,61121,19.13,74546.3,26.17,-4.29,-3.79,0,*48
1500458777.2,61122,19.13,74546.0,26.17,-3.67,-3.27,0,*4D
1500458778.39,61123,19.13,74546.3,26.19,-4.13,-3.83,0,*48
1500458779.57,61124,19.13,74544.8,26.19,-4.41,-4.13,0,*46
1500458780.8,61125,19.13,74546.3,26.21,-4.99,-4.93,0,*41
1500458782.01,61126,19.13,74544.5,26.21,-5.97,-6.13,0,*47
1500458783.19,61127,19.13,74546.0,26.19,-6.55,-6.55,0,*42
1500458784.37,61128,19.13,74544.5,26.19,-6.47,-6.69,0,*41
1500458785.63,61129,19.13,74542.0,26.17,-5.61,-5.93,0,*4F
1500458786.86,61130,19.13,74544.5,26.17,-7.19,-7.57,0,*40
1500458788.09,61131,19.13,74544.8,26.13,-6.55,-7.05,0,*4B
1500458789.34,61132,19.13,74544.0,26.11,-9.11,-9.49,0,*43
1500458790.58,61133,19.13,74544.8,26.03,-9.11,-9.71,0,*4A
1500458791.8,61134,19.13,74544.8,26.01,-7.11,-7.65,0,*4A
1500458793.01,61135,19.13,74544.5,25.99,-7.53,-8.25,0,*44
1500458794.24,61136,19.13,74544.5,25.99,-8.11,-8.93,0,*43
1500458795.46,61137,19.13,74544.0,25.95,-6.55,-7.49,0,*48
1500458796.7,61138,19.13,74540.8,25.91,-8.21,-9.15,0,*49
1500458797.97,61139,19.13,74546.3,25.91,-8.07,-9.15,0,*4C
1500458799.21,61140,19.13,74542.8,25.87,-8.11,-9.23,0,*47
1500458800.41,61141,19.13,74546.3,25.81,-10.15,-11.23,0,*44
1500458801.61,61142,19.13,74548.0,25.77,-9.97,-10.97,0,*72
1500458802.83,61143,19.13,74546.3,25.71,-9.83,-10.97,0,*70
1500458804.04,61144,19.13,74544.5,25.69,-9.97,-11.11,0,*74
1500458805.26,61145,19.13,74546.8,25.65,-9.79,-11.15,0,*7D
1500458806.48,61146,19.13,74546.8,25.55,-10.53,-11.89,0,*48
1500458807.73,61147,19.13,74544.0,25.51,-9.57,-10.79,0,*7F
1500458808.95,61148,19.13,74544.3,25.47,-8.29,-9.83,0,*42
1500458810.14,61149,19.13,74544.8,25.47,-7.15,-8.71,0,*4F
1500458811.38,61150,19.13,74546.5,25.45,-7.39,-8.89,0,*4C
1500458812.59,61151,19.13,74544.5,25.43,-7.31,-9.31,0,*41
1500458813.82,61152,19.13,74546.0,25.37,-7.05,-8.81,0,*4C
1500458815.07,61153,19.13,74544.8,25.35,-6.19,-7.87,0,*4A
1500458816.33,61154,19.13,74544.5,25.35,-5.23,-6.97,0,*47
1500458817.55,61155,19.13,74546.3,25.41,-4.65,-6.69,0,*47
1500458818.79,61156,19.13,74544.8,25.35,-7.99,-10.09,0,*76
1500458820.03,61157,19.13,74546.0,25.35,-6.55,-8.81,0,*4F
1500458821.27,61158,19.13,74546.0,25.35,-5.39,-7.61,0,*48
1500458822.46,61159,19.13,74544.5,25.33,-4.13,-6.55,0,*40
1500458823.73,61160,19.13,74544.5,25.35,-5.03,-7.35,0,*4B
1500458824.95,61161,19.13,74546.3,25.35,-3.31,-5.55,0,*49
1500458826.19,61162,19.13,74544.5,25.41,-4.53,-7.05,0,*4D
1500458827.41,61163,19.13,74542.3,25.41,-3.95,-6.39,0,*4F
1500458828.6,61164,19.13,74544.0,25.43,-2.87,-5.39,0,*4B
1500458829.88,61165,19.13,74544.3,25.45,-2.55,-5.03,0,*4A
1500458831.13,61166,19.13,74546.8,25.49,-2.31,-4.81,0,*4C
1500458832.34,61167,19.13,74544.5,25.53,-1.55,-4.33,0,*4E
1500458833.56,61168,19.13,74546.5,25.51,-2.63,-5.47,0,*47
1500458834.77,61169,19.13,74546.3,25.55,-3.23,-6.19,0,*4F
1500458836.01,61170,19.13,74546.8,25.57,-3.67,-6.43,0,*4A
1500458837.26,61171,19.13,74544.8,25.55,-5.03,-7.95,0,*47
1500458838.49,61172,19.13,74546.8,25.53,-4.37,-7.39,0,*42
1500458839.73,61173,19.13,74544.8,25.57,-3.55,-6.55,0,*4F
1500458840.91,61174,19.13,74546.0,25.55,-4.45,-7.49,0,*40
1500458842.13,61175,19.19,74550.0,25.55,-6.13,-9.37,0,*47
1500458843.33,61176,19.13,74544.5,25.51,-5.55,-8.71,0,*42
1500458844.55,61177,19.13,74546.5,25.51,-3.79,-7.05,0,*47
1500458845.79,61178,19.13,74544.0,25.51,-3.59,-6.63,0,*4B
1500458847.04,61179,19.13,74544.5,25.51,-2.59,-5.61,0,*4A
1500458848.29,61180,19.13,74546.0,25.55,-2.03,-5.03,0,*43
1500458849.55,61181,19.13,74542.8,25.57,-2.63,-5.77,0,*45
1500458850.78,61182,19.13,74544.0,25.59,-1.47,-4.53,0,*4A
1500458851.99,61183,19.13,74542.3,25.59,-1.35,-4.29,0,*43
1500458853.23,61184,19.13,74544.3,25.65,-1.13,-4.41,0,*41
1500458854.48,61185,19.13,74544.3,25.65,-1.43,-4.53,0,*46
1500458855.73,61186,19.13,74542.0,25.67,-2.03,-5.07,0,*40
1500458856.94,61187,19.13,74542.0,25.69,-2.35,-5.55,0,*4D
1500458858.13,61188,19.13,74542.8,25.71,-1.51,-4.57,0,*49
1500458859.35,61189,19.19,74544.8,25.75,-1.29,-4.45,0,*40
1500458860.57,61190,19.13,74540.0,25.75,-2.27,-5.35,0,*43
1500458861.8,61191,19.13,74540.5,25.79,-1.59,-4.69,0,*4C
1500458863.04,61192,19.13,74536.3,25.79,-1.51,-4.69,0,*47
1500458864.29,61193,19.13,74538.5,25.77,-1.87,-5.11,0,*4D
1500458865.51,61194,19.13,74540.5,25.81,-1.43,-4.61,0,*4D
1500458866.73,61195,19.13,74542.3,25.83,-3.07,-6.59,0,*45
1500458867.97,61196,19.13,74540.0,25.83,-3.67,-7.19,0,*45
1500458869.19,61197,19.13,74542.5,25.83,-3.03,-6.55,0,*4F
1500458870.39,61198,19.13,74540.0,25.81,-3.11,-6.55,0,*41
1500458871.6,61199,19.13,74538.0,25.81,-5.15,-8.71,0,*4A
1500458872.85,61200,19.13,74540.0,25.81,-3.59,-7.01,0,*4F
1500458874.03,61201,19.13,74538.0,25.81,-4.61,-8.29,0,*47
1500458875.27,61202,19.13,74538.3,25.77,-5.89,-9.57,0,*42
1500458876.5,61203,19.13,74538.3,25.75,-6.55,-10.45,0,*78
1500458877.69,61204,19.13,74542.3,25.73,-5.51,-9.27,0,*42
1500458878.94,61205,19.13,74540.8,25.69,-4.69,-8.51,0,*42
1500458880.18,61206,19.19,74544.0,25.69,-5.43,-9.45,0,*4C
1500458881.42,61207,19.13,74542.3,25.65,-5.89,-9.79,0,*48
1500458882.66,61208,19.13,74542.3,25.61,-2.75,-6.51,0,*42
1500458883.88,61209,19.13,74542.8,25.65,-2.99,-6.81,0,*48
1500458885.1,61210,19.19,74542.0,25.67,-1.21,-4.93,0,*43
1500458886.31,61211,19.13,74544.0,25.67,-0.89,-4.61,0,*7C
1500458887.53,61212,19.13,74542.0,25.71,-2.03,-6.13,0,*4F
1500458888.76,61213,19.19,74544.3,25.69,-3.51,-7.53,0,*44
1500458889.98,61214,19.13,74540.8,25.71,-3.79,-7.99,0,*46
1500458891.23,61215,19.19,74544.0,25.71,-3.55,-7.65,0,*4A
1500458892.44,61216,19.19,74546.3,25.69,-2.15,-6.35,0,*41
1500458893.66,61217,19.13,74540.8,25.71,-1.99,-6.35,0,*4E
1500458894.87,61218,19.19,74542.3,25.71,-3.75,-7.87,0,*49
1500458896.1,61219,19.19,74544.3,25.71,-2.75,-7.01,0,*47
1500458897.32,61220,19.19,74544.3,25.71,-2.63,-6.77,0,*4A
1500458898.52,61221,19.19,74544.5,25.73,-2.99,-7.11,0,*4D
1500458899.73,61222,19.13,74540.8,25.73,-1.59,-5.81,0,*4A
1500458900.94,61223,19.13,74542.3,25.71,-2.59,-6.89,0,*41
1500458902.16,61224,19.19,74546.5,25.71,-3.51,-7.83,0,*44
1500458903.38,61225,19.19,74544.8,25.71,-3.27,-7.65,0,*4C
1500458904.62,61226,19.13,74542.5,25.73,-1.43,-5.77,0,*4C
1500458905.84,61227,19.13,74540.0,25.73,-1.09,-5.39,0,*49
1500458907.08,61228,19.13,74540.3,25.75,-0.65,-4.69,0,*7F